Weather History for Ft Riley, KS

Change the Weather History Date:

Monday, March 25, 2013

  Actual Average (KMHK) Record (KMHK)
Temperature  
Mean Temperature 29 °F 47 °F  
Max Temperature 34 °F 60 °F 80 °F (2007)
Min Temperature 24 °F 33 °F 19 °F (2006)
Degree Days  
Heating Degree Days 36 18  
Month to date heating degree days 575  
Since 1 July heating degree days 4735  
Cooling Degree Days 0 0  
Month to date cooling degree days 0  
Year to date cooling degree days 0  
Moisture  
Dew Point 20 °F    
Average Humidity 70    
Maximum Humidity 93    
Minimum Humidity 50    
Precipitation  
Precipitation 0.00 in 0.08 in 0.04 in (2011)
Month to date precipitation 1.82  
Year to date precipitation 3.54  
Sea Level Pressure  
Sea Level Pressure 30.26 in    
Wind  
Wind Speed 12 mph (NW)    
Max Wind Speed 22 mph    
Max Gust Speed 26 mph    
Visibility 10 miles    
Events Rain , Snow    
T = Trace of Precipitation, MM = Missing Value Source: NWS Daily Summary

Daily Weather History Graph

Daily Weather History Graph

Search for Another Location

Airport:

Trip Planner

Search our weather history database for the weather conditions in past years. The results will help you decide how hot, cold, wet, or windy it might be!

Date:

Astronomy

Mar. 25, 2013 Rise Set
Actual Time 7:22 AM CDT 7:44 PM CDT
Civil Twilight 6:55 AM CDT 8:10 PM CDT
Nautical Twilight 6:24 AM CDT 8:42 PM CDT
Astronomical Twilight 5:52 AM CDT 9:14 PM CDT
Moon 6:17 PM CDT (3/25) 6:05 AM CDT (3/25)
Length of Visible Light 13h 15m
Length of Day
12h 22m
Waxing Gibbous, 96% of the Moon is Illuminated
Mar 25
Waxing Gibbous
Mar 27
Full
Apr 2
Last Quarter
Apr 10
New
Apr 18
First Quarter

Hourly Weather History & Observations

Time (CDT) Temp. Windchill Dew Point Humidity Pressure Visibility Wind Dir Wind Speed Gust Speed Precip Events Conditions
12:58 AM 32.0 °F 23.0 °F 17.6 °F 55% 30.13 in 10.0 mi North 11.5 mph - N/A   Partly Cloudy
1:58 AM 24.6 °F 15.1 °F 16.2 °F 70% 30.19 in 10.0 mi NW 9.2 mph - N/A   Unknown
2:58 AM 24.8 °F 14.6 °F 17.6 °F 74% 30.19 in 10.0 mi NW 10.4 mph 17.3 mph N/A   Clear
3:33 AM 24.8 °F 13.4 °F 19.4 °F 80% 30.16 in 10.0 mi WNW 12.7 mph - N/A   Mostly Cloudy
3:40 AM 24.8 °F 15.3 °F 19.4 °F 80% 30.16 in 10.0 mi WNW 9.2 mph - N/A   Mostly Cloudy
3:50 AM 24.8 °F 13.4 °F 19.4 °F 80% 30.16 in 10.0 mi WNW 12.7 mph 19.6 mph N/A   Overcast
3:58 AM 25.3 °F 14.7 °F 19.6 °F 79% 30.19 in 10.0 mi WNW 11.5 mph 19.6 mph 0.00 in   Overcast
4:03 AM 24.8 °F 13.4 °F 19.4 °F 80% 30.16 in 10.0 mi WNW 12.7 mph - N/A   Overcast
4:08 AM 24.8 °F 14.6 °F 19.4 °F 80% 30.16 in 10.0 mi WNW 10.4 mph - N/A   Overcast
4:14 AM 24.8 °F 14.0 °F 19.4 °F 80% 30.16 in 10.0 mi WNW 11.5 mph - N/A   Overcast
4:18 AM 24.8 °F 16.1 °F 21.2 °F 86% 30.16 in 10.0 mi WNW 8.1 mph - N/A   Overcast
4:23 AM 24.8 °F 12.9 °F 21.2 °F 86% 30.16 in 10.0 mi WNW 13.8 mph 20.7 mph N/A   Overcast
4:58 AM 25.7 °F 14.6 °F 21.9 °F 86% 30.19 in 9.0 mi WNW 12.7 mph 21.9 mph 0.00 in Snow Light Snow
5:13 AM 24.8 °F 11.9 °F 23.0 °F 93% 30.17 in 7.0 mi WNW 16.1 mph 21.9 mph N/A Snow Light Snow
5:58 AM 25.9 °F 16.0 °F 23.0 °F 89% 30.21 in 10.0 mi NW 10.4 mph 21.9 mph 0.00 in   Overcast
6:15 AM 26.6 °F 16.2 °F 23.0 °F 86% 30.18 in 10.0 mi NW 11.5 mph - N/A   Overcast
6:58 AM 26.6 °F 16.8 °F 23.2 °F 87% 30.23 in 10.0 mi NW 10.4 mph - 0.00 in   Overcast
7:38 AM 26.6 °F 16.8 °F 21.2 °F 80% 30.22 in 10.0 mi NW 10.4 mph 18.4 mph N/A   Mostly Cloudy
7:58 AM 26.8 °F 15.9 °F 20.7 °F 78% 30.25 in 10.0 mi NW 12.7 mph 20.7 mph N/A   Scattered Clouds
8:58 AM 26.8 °F 15.9 °F 19.8 °F 75% 30.28 in 10.0 mi NNW 12.7 mph 19.6 mph N/A   Clear
9:58 AM 28.8 °F 20.2 °F 18.9 °F 67% 30.29 in 10.0 mi NW 9.2 mph 25.3 mph N/A   Clear
10:58 AM 30.0 °F 19.5 °F 18.3 °F 62% 30.31 in 10.0 mi NNW 13.8 mph 25.3 mph N/A   Overcast
11:58 AM 30.7 °F 19.6 °F 17.2 °F 57% 30.32 in 10.0 mi NNW 16.1 mph 24.2 mph N/A   Overcast
12:46 PM 32.0 °F 19.5 °F 17.6 °F 55% 30.29 in 10.0 mi NNW 21.9 mph 26.5 mph N/A   Overcast
12:58 PM 30.9 °F 21.7 °F 17.6 °F 58% 30.32 in 10.0 mi NNW 11.5 mph 26.5 mph 0.00 in   Overcast
12:59 PM 32.0 °F 21.6 °F 17.6 °F 55% 30.29 in 10.0 mi NNW 15.0 mph 26.5 mph N/A   Overcast
1:18 PM 32.0 °F 20.8 °F 17.6 °F 55% 30.29 in 10.0 mi WNW 17.3 mph 26.5 mph N/A   Overcast
1:19 PM 32.0 °F 20.8 °F 17.6 °F 55% 30.29 in 10.0 mi WNW 17.3 mph 26.5 mph N/A Rain Light Rain
1:34 PM 32.0 °F 21.6 °F 19.4 °F 60% 30.29 in 10.0 mi NW 15.0 mph 21.9 mph N/A   Overcast
1:58 PM 32.4 °F 21.7 °F 18.5 °F 57% 30.32 in 10.0 mi NW 16.1 mph 24.2 mph 0.00 in   Overcast
2:58 PM 32.5 °F 23.7 °F 17.8 °F 55% 30.32 in 10.0 mi NW 11.5 mph 26.5 mph N/A   Overcast
3:58 PM 34.3 °F 26.5 °F 17.6 °F 50% 30.31 in 10.0 mi NNW 10.4 mph 20.7 mph N/A   Overcast
4:39 PM 32.0 °F 22.1 °F 21.2 °F 64% 30.29 in 10.0 mi NNW 13.8 mph 24.2 mph N/A   Overcast
4:48 PM 32.0 °F 21.6 °F 21.2 °F 64% 30.28 in 10.0 mi NNW 15.0 mph 19.6 mph N/A   Overcast
4:58 PM 33.4 °F 23.5 °F 21.2 °F 61% 30.32 in 10.0 mi NNW 15.0 mph 24.2 mph 0.00 in   Overcast
5:47 PM 32.0 °F 24.2 °F 21.2 °F 64% 30.30 in 10.0 mi NNW 9.2 mph 19.6 mph N/A   Overcast
5:56 PM 32.0 °F 22.1 °F 21.2 °F 64% 30.30 in 10.0 mi North 13.8 mph - N/A   Overcast
5:58 PM 32.0 °F 23.0 °F 21.2 °F 64% 30.33 in 10.0 mi North 11.5 mph - 0.00 in   Overcast
6:58 PM 31.8 °F 22.8 °F 21.2 °F 65% 30.35 in 10.0 mi North 11.5 mph - N/A   Overcast
7:58 PM 30.7 °F 24.1 °F 22.3 °F 71% 30.37 in 10.0 mi NNW 6.9 mph - N/A   Overcast
8:58 PM 30.4 °F 23.6 °F 22.3 °F 72% 30.38 in 10.0 mi NNW 6.9 mph - N/A   Overcast
9:58 PM 29.3 °F 24.3 °F 21.6 °F 73% 30.40 in 10.0 mi NNW 4.6 mph - N/A   Overcast
10:58 PM 27.7 °F 21.3 °F 20.1 °F 73% 30.40 in 10.0 mi NNW 5.8 mph - N/A   Partly Cloudy
11:58 PM 26.4 °F 22.4 °F 19.8 °F 76% 30.41 in 10.0 mi NW 3.5 mph - N/A   Clear